Simultaneous Nadir Overpasses (SNOs) Predictions

Prediction of SNOs between LANDSAT-8 and TERRA Satellite Orbit:

Table of predicted SNOs for the next 14.0 days since TLE Epoch: 9/28/2024
Index Date (LANDSAT-8) Time (LANDSAT-8) Lat,Lon (LANDSAT-8) SZA (LANDSAT-8 ) Date (TERRA) Time (TERRA) Lat,Lon (TERRA) SZA (TERRA ) Distance(km) Time Diff (sec)
1 10/05/2024 16:15:10 -81.79,-175.87 87.65 10/05/2024 16:16:20 -81.79,-175.88 87.61 0.31 70
2 10/05/2024 17:04:37 81.80, -8.52 92.34 10/05/2024 17:05:40 81.80, -8.31 92.40 3.33 63
3 10/05/2024 17:54:03 -81.80, 159.37 87.62 10/05/2024 17:55:01 -81.79, 159.53 87.57 2.65 58
4 10/05/2024 18:43:29 81.79, -32.85 92.41 10/05/2024 18:44:21 81.79, -32.90 92.44 0.80 52
5 10/05/2024 19:32:56 -81.80, 134.61 87.60 10/05/2024 19:33:43 -81.80, 134.52 87.59 1.46 47
6 10/05/2024 20:22:22 81.79, -57.61 92.44 10/05/2024 20:23:02 81.79, -57.49 92.47 1.92 40
7 10/05/2024 21:11:49 -81.80, 109.85 87.58 10/05/2024 21:12:24 -81.80, 109.93 87.55 1.30 35
8 10/05/2024 22:01:15 81.79, -82.37 92.46 10/05/2024 22:01:44 81.80, -82.50 92.46 2.22 29
9 10/05/2024 22:50:41 -81.79, 85.52 87.50 10/05/2024 22:51:05 -81.79, 85.34 87.51 2.81 24
10 10/05/2024 23:40:08 81.79,-107.13 92.48 10/05/2024 23:40:25 81.80,-107.10 92.49 0.68 17
11 10/06/2024 00:29:34 -81.79, 60.76 87.48 10/06/2024 00:29:46 -81.79, 60.75 87.48 0.13 12
12 10/06/2024 01:19:00 81.79,-131.47 92.56 10/06/2024 01:19:05 81.78,-131.27 92.58 3.21 5
13 10/06/2024 02:08:27 -81.79, 36.00 87.46 10/06/2024 02:08:27 -81.79, 36.16 87.44 2.56 0
14 10/06/2024 02:57:53 81.79,-156.23 92.58 10/06/2024 02:57:47 81.79,-156.28 92.57 0.93 6
15 10/06/2024 03:47:19 -81.79, 11.66 87.38 10/06/2024 03:47:08 -81.79, 11.56 87.40 1.53 11
16 10/06/2024 04:36:46 81.79, 179.01 92.60 10/06/2024 04:36:28 81.79, 179.12 92.60 1.78 18
17 10/06/2024 05:26:12 -81.79, -13.10 87.36 10/06/2024 05:25:49 -81.78, -13.03 87.37 1.19 23
18 10/06/2024 06:15:38 81.79, 154.68 92.67 10/06/2024 06:15:09 81.79, 154.53 92.64 2.34 29
19 10/06/2024 07:05:05 -81.79, -37.86 87.34 10/06/2024 07:04:31 -81.80, -38.04 87.38 2.92 34
20 10/06/2024 07:54:31 81.79, 129.91 92.70 10/06/2024 07:53:50 81.79, 129.93 92.67 0.36 41
21 10/06/2024 08:43:58 -81.79, -62.62 87.32 10/06/2024 08:43:12 -81.79, -62.63 87.35 0.46 46
22 10/06/2024 09:33:24 81.79, 105.15 92.72 10/06/2024 09:32:31 81.78, 105.34 92.71 3.02 53
23 10/06/2024 10:22:50 -81.78, -86.96 87.24 10/06/2024 10:21:52 -81.78, -86.81 87.26 2.50 58
24 10/06/2024 11:12:16 81.78, 80.81 92.79 10/06/2024 11:11:12 81.78, 80.74 92.75 1.14 64



Historial Predications of SNOs between LANDSAT-8 and TERRA
